When you browse on this site, cookies collect data to enhance your experience and personalize the content and advertising you see.
Visit our Privacy Policy to learn more. By continuing to use the site, you agree to this use of cookies and data.
  • In Lithuania
  • List of Countries
  • For 7 days
  • Water Temperature
  • Satellite Maps
  • Weather Map
  • Weather Widgets
  • user-avatar
    Login

    Hourly Weather Sovhoznoe

    Today, 22 July, Monday

    Time Temperature Precipitation Wind Pressure Humidity
    00:00 +19°C° 0.1 mm 1 mps 688 mmHg 78%
    01:00 +19°C° 0.6 mm 1 mps 688 mmHg 80%
    02:00 +19°C° 0.6 mm 1 mps 689 mmHg 83%
    03:00 +19°C° 0.6 mm 1 mps 689 mmHg 86%
    04:00 +19°C° 0.1 mm 1 mps 689 mmHg 87%
    05:00 +19°C° 0.1 mm 1 mps 689 mmHg 88%
    06:00 +19°C° 0.1 mm 1 mps 689 mmHg 89%
    07:00 +20°C° 0 mm 1 mps 689 mmHg 88%
    08:00 +20°C° 0 mm 1 mps 689 mmHg 86%
    09:00 +20°C° 0 mm 2 mps 689 mmHg 85%
    10:00 +20°C° 0 mm 2 mps 689 mmHg 82%
    11:00 +21°C° 0 mm 2 mps 689 mmHg 80%
    12:00 +23°C° 0 mm 2 mps 689 mmHg 78%
    13:00 +23°C° 0 mm 2 mps 689 mmHg 77%
    14:00 +23°C° 0 mm 2 mps 689 mmHg 76%
    15:00 +23°C° 0 mm 2 mps 689 mmHg 75%
    16:00 +21°C° 0.1 mm 2 mps 689 mmHg 77%
    17:00 +22°C° 0.1 mm 1 mps 689 mmHg 78%
    18:00 +21°C° 0.1 mm 1 mps 689 mmHg 80%
    19:00 +21°C° 0 mm 1 mps 689 mmHg 79%
    20:00 +20°C° 0 mm 2 mps 689 mmHg 78%
    21:00 +19°C° 0 mm 2 mps 689 mmHg 77%
    22:00 +20°C° 0 mm 1 mps 689 mmHg 77%
    23:00 +20°C° 0 mm 1 mps 689 mmHg 77%

    Tomorrow, 23 July, Tuesday

    Time Temperature Precipitation Wind Pressure Humidity
    00:00 +20°C° 0 mm 1 mps 688 mmHg 77%
    01:00 +19°C° 0.4 mm 1 mps 688 mmHg 80%
    02:00 +17°C° 0.4 mm 0 mps 688 mmHg 82%
    03:00 +17°C° 0.4 mm 0 mps 687 mmHg 85%
    04:00 +17°C° 0.5 mm 0 mps 687 mmHg 88%
    05:00 +18°C° 0.5 mm 1 mps 687 mmHg 90%
    06:00 +18°C° 0.5 mm 1 mps 687 mmHg 93%
    07:00 +18°C° 0.1 mm 2 mps 687 mmHg 92%
    08:00 +18°C° 0.1 mm 2 mps 687 mmHg 92%
    09:00 +19°C° 0.1 mm 3 mps 687 mmHg 91%
    10:00 +20°C° 0.1 mm 4 mps 687 mmHg 87%
    11:00 +21°C° 0.1 mm 5 mps 687 mmHg 82%
    12:00 +21°C° 0.1 mm 5 mps 688 mmHg 78%
    13:00 +21°C° 0.1 mm 5 mps 687 mmHg 80%
    14:00 +21°C° 0.1 mm 5 mps 687 mmHg 82%
    15:00 +21°C° 0.1 mm 5 mps 687 mmHg 83%
    16:00 +20°C° 0.1 mm 4 mps 687 mmHg 84%
    17:00 +20°C° 0.1 mm 4 mps 687 mmHg 85%
    18:00 +20°C° 0.1 mm 3 mps 687 mmHg 87%
    19:00 +19°C° 0 mm 3 mps 687 mmHg 89%
    20:00 +18°C° 0 mm 2 mps 686 mmHg 90%
    21:00 +18°C° 0 mm 2 mps 686 mmHg 92%
    22:00 +17°C° 0 mm 2 mps 686 mmHg 92%
    23:00 +18°C° 0 mm 1 mps 686 mmHg 91%

    Day after tomorrow, 24 July, Wednesday

    Time Temperature Precipitation Wind Pressure Humidity
    00:00 +16°C° 0 mm 1 mps 686 mmHg 91%
    01:00 +16°C° 0 mm 1 mps 686 mmHg 89%
    02:00 +16°C° 0 mm 1 mps 685 mmHg 87%
    03:00 +16°C° 0 mm 1 mps 685 mmHg 86%
    04:00 +18°C° 0 mm 1 mps 685 mmHg 85%
    05:00 +19°C° 0 mm 1 mps 685 mmHg 84%
    06:00 +19°C° 0 mm 1 mps 686 mmHg 83%
    07:00 +20°C° 0 mm 1 mps 686 mmHg 82%
    08:00 +20°C° 0 mm 2 mps 686 mmHg 81%
    09:00 +21°C° 0 mm 2 mps 686 mmHg 79%
    10:00 +22°C° 0 mm 3 mps 686 mmHg 78%
    11:00 +24°C° 0 mm 3 mps 686 mmHg 77%
    12:00 +25°C° 0 mm 3 mps 686 mmHg 76%
    13:00 +25°C° 0 mm 3 mps 686 mmHg 76%
    14:00 +25°C° 0 mm 3 mps 686 mmHg 76%
    15:00 +25°C° 0 mm 3 mps 686 mmHg 76%
    16:00 +25°C° 0 mm 3 mps 686 mmHg 78%
    17:00 +24°C° 0 mm 3 mps 686 mmHg 81%
    18:00 +24°C° 0 mm 3 mps 686 mmHg 83%
    19:00 +22°C° 0.1 mm 3 mps 686 mmHg 86%
    20:00 +20°C° 0.1 mm 2 mps 686 mmHg 89%
    21:00 +20°C° 0.1 mm 1 mps 686 mmHg 93%
    22:00 +20°C° 0 mm 1 mps 686 mmHg 91%
    23:00 +20°C° 0 mm 1 mps 686 mmHg 90%

    25 July, Thursday

    Time Temperature Precipitation Wind Pressure Humidity
    00:00 +18°C° 0 mm 2 mps 686 mmHg 89%
    01:00 +18°C° 0.2 mm 2 mps 686 mmHg 90%
    02:00 +19°C° 0.2 mm 2 mps 686 mmHg 91%
    03:00 +19°C° 0.2 mm 2 mps 686 mmHg 91%
    04:00 +18°C° 0.4 mm 2 mps 686 mmHg 92%
    05:00 +18°C° 0.4 mm 2 mps 686 mmHg 93%
    06:00 +18°C° 0.4 mm 2 mps 686 mmHg 93%
    07:00 +18°C° 1.3 mm 2 mps 686 mmHg 95%
    08:00 +18°C° 1.3 mm 2 mps 687 mmHg 96%
    09:00 +18°C° 1.3 mm 2 mps 687 mmHg 97%
    10:00 +18°C° 3.8 mm 2 mps 687 mmHg 96%
    11:00 +18°C° 3.8 mm 2 mps 687 mmHg 95%
    12:00 +18°C° 3.8 mm 2 mps 687 mmHg 94%
    13:00 +19°C° 0.6 mm 2 mps 688 mmHg 91%
    14:00 +20°C° 0.6 mm 1 mps 688 mmHg 88%
    15:00 +21°C° 0.6 mm 1 mps 688 mmHg 85%
    16:00 +21°C° 0.1 mm 1 mps 688 mmHg 84%
    17:00 +21°C° 0.1 mm 1 mps 688 mmHg 84%
    18:00 +21°C° 0.1 mm 1 mps 688 mmHg 84%
    19:00 +20°C° 0.1 mm 1 mps 688 mmHg 85%
    20:00 +19°C° 0.1 mm 1 mps 688 mmHg 86%
    21:00 +18°C° 0.1 mm 1 mps 688 mmHg 88%
    22:00 +18°C° 0 mm 1 mps 687 mmHg 87%
    23:00 +18°C° 0 mm 1 mps 687 mmHg 86%

    26 July, Friday

    Time Temperature Precipitation Wind Pressure Humidity
    00:00 +18°C° 0 mm 1 mps 687 mmHg 86%
    01:00 +18°C° 0 mm 1 mps 687 mmHg 85%
    02:00 +18°C° 0 mm 1 mps 687 mmHg 84%
    03:00 +19°C° 0 mm 1 mps 687 mmHg 84%
    04:00 +19°C° 0 mm 1 mps 687 mmHg 85%
    05:00 +17°C° 0 mm 0 mps 687 mmHg 86%
    06:00 +17°C° 0 mm 0 mps 687 mmHg 87%
    07:00 +19°C° 0.1 mm 1 mps 687 mmHg 86%
    08:00 +20°C° 0.1 mm 1 mps 687 mmHg 84%
    09:00 +20°C° 0.1 mm 1 mps 686 mmHg 83%
    10:00 +21°C° 0.6 mm 1 mps 686 mmHg 80%
    11:00 +21°C° 0.6 mm 2 mps 686 mmHg 77%
    12:00 +23°C° 0.6 mm 2 mps 686 mmHg 74%
    13:00 +23°C° 0.6 mm 2 mps 686 mmHg 76%
    14:00 +21°C° 0.6 mm 2 mps 686 mmHg 77%
    15:00 +21°C° 0.6 mm 2 mps 686 mmHg 78%
    16:00 +21°C° 0.6 mm 1 mps 686 mmHg 81%
    17:00 +20°C° 0.6 mm 1 mps 685 mmHg 85%
    18:00 +20°C° 0.6 mm 1 mps 685 mmHg 89%
    19:00 +19°C° 0.7 mm 1 mps 685 mmHg 91%
    20:00 +18°C° 0.7 mm 1 mps 686 mmHg 93%
    21:00 +18°C° 0.7 mm 1 mps 686 mmHg 95%
    22:00 +18°C° 0.4 mm 1 mps 685 mmHg 95%
    23:00 +16°C° 0.4 mm 1 mps 685 mmHg 94%

    27 July, Saturday

    Time Temperature Precipitation Wind Pressure Humidity
    00:00 +16°C° 0.4 mm 1 mps 685 mmHg 94%
    01:00 +16°C° 0.1 mm 1 mps 684 mmHg 92%
    02:00 +16°C° 0.1 mm 1 mps 684 mmHg 90%
    03:00 +15°C° 0.1 mm 1 mps 684 mmHg 88%
    04:00 +15°C° 0.5 mm 1 mps 684 mmHg 88%
    05:00 +15°C° 0.5 mm 1 mps 684 mmHg 88%
    06:00 +15°C° 0.5 mm 1 mps 684 mmHg 88%
    07:00 +17°C° 0.2 mm 2 mps 684 mmHg 84%
    08:00 +18°C° 0.2 mm 2 mps 684 mmHg 81%
    09:00 +19°C° 0.2 mm 2 mps 684 mmHg 78%
    10:00 +20°C° 0.6 mm 2 mps 684 mmHg 76%
    11:00 +20°C° 0.6 mm 2 mps 684 mmHg 75%
    12:00 +21°C° 0.6 mm 2 mps 684 mmHg 73%
    13:00 +21°C° 0.7 mm 2 mps 684 mmHg 73%
    14:00 +22°C° 0.7 mm 1 mps 684 mmHg 73%
    15:00 +21°C° 0.7 mm 1 mps 683 mmHg 74%
    16:00 +21°C° 0.8 mm 1 mps 683 mmHg 76%
    17:00 +20°C° 0.8 mm 1 mps 683 mmHg 79%
    18:00 +20°C° 0.8 mm 1 mps 683 mmHg 82%
    19:00 +18°C° 0.4 mm 2 mps 683 mmHg 84%
    20:00 +17°C° 0.4 mm 2 mps 683 mmHg 85%
    21:00 +16°C° 0.4 mm 3 mps 684 mmHg 87%
    22:00 +16°C° 0 mm 3 mps 683 mmHg 85%
    23:00 +14°C° 0 mm 3 mps 683 mmHg 84%
    Show more